Skip Page Navigation
NASA JPL Caltech
NASA Logo - Jet Propulsion Laboratory + View the NASA Portal
+ Center for Near-Earth Object Studies
JPL Home Earth Solar System Stars & Galaxies Technology
JPL Solar System Dynamics
BODIES ORBITS EPHEMERIDES TOOLS PHYSICAL DATA DISCOVERY FAQ SITE MAP
JPL Small-Body Database Browser
Search: [ help ]  
295749 (2008 UZ115)
Classification: Main-belt Asteroid          SPK-ID: 2295749
Ephemeris | Orbit Diagram | Orbital Elements | Mission Design | Physical Parameters | Discovery Circumstances | Close-Approach Data ]

[ show orbit diagram ]
Orbital Elements at Epoch 2459000.5 (2020-May-31.0) TDB
Reference: JPL 13 (heliocentric ecliptic J2000)
 Element Value Uncertainty (1-sigma)   Units 
e .06865886609861517 6.0847e-08  
a 2.384224722156358 2.2285e-08 au
q 2.220526556208817 1.5636e-07 au
i 5.677673956402996 4.8827e-06 deg
node 281.9484565315389 5.8336e-05 deg
peri 260.3766517905598 6.9181e-05 deg
M 282.8642630862287 3.993e-05 deg
tp 2459288.619292280694
(2021-Mar-15.11929228)
0.00015039 TDB
period 1344.68081036161
3.68
1.8853e-05
5.162e-08
d
yr
n .2677215270910197 3.7536e-09 deg/d
Q 2.547922888103899 2.3816e-08 au
  Orbit Determination Parameters
   # obs. used (total)      209  
   data-arc span      5123 days (14.03 yr)  
   first obs. used      2006-01-09  
   last obs. used      2020-01-19  
   planetary ephem.      DE431  
   SB-pert. ephem.      SB431-N16  
   condition code      0  
   norm. resid. RMS      .54231  
   source      ORB  
   producer      Otto Matic  
   solution date      2020-Feb-25 16:42:13  

Additional Information
 Earth MOID = 1.23147 au 
 Jupiter MOID = 2.44685 au 
 T_jup = 3.526 
[ show covariance matrix ]

Ephemeris | Orbit Diagram | Orbital Elements | Mission Design | Physical Parameters | Discovery Circumstances | Close-Approach Data ]

Physical Parameter Table
Parameter Symbol Value Units Sigma Reference Notes
absolute magnitude H 16.8   n/a MPO503287  

295749 (2008 UZ115)          Discovered 2008-Oct-22 by Spacewatch at Kitt Peak
Reference: 20110912/Numbers.arcLast Updated: 2011-09-14

[ show close-approach data ]
Alternate Designations
 2008 UZ115 = 2006 CE61 
Ephemeris | Orbit Diagram | Orbital Elements | Mission Design | Physical Parameters | Discovery Circumstances | Close-Approach Data ]
ABOUT SSD CREDITS/AWARDS PRIVACY/COPYRIGHT GLOSSARY LINKS
FirstGov 2020-Aug-11 05:02 UT
(server date/time)  
NASA Home Page
Site Manager:   Ryan S. Park
Webmaster  Alan B. Chamberlin